Greenland, New Hampshire, United States (03840)
Lat: 43.04N, Lon: 70.83W
Wx Zone: NHZ014
Local Info
Past Weather Observations for Sunday, May 1, 2016

NOTE: This archive is for the closest National Weather Service station to Greenland. Information may differ from the station used for current weather conditions.

Click here for Long-term Archive

Time Weather Temperature Dewpoint Humidity Pressure Winds Precip Visibility
23:58
Overcast
Drizzle
43°F / 6°C 41°F / 5°C 93% 30.12 in
(1020 mb)
ESE 6.9 mph
(ESE 11 kph)
0.02 in
(0.51 mm)
7SM
23:51
Overcast
Drizzle
43°F / 6°C 41°F / 5°C 93% 30.12 in
(1020 mb)
SE 5.8 mph
(SE 9 kph)
- 7SM
23:44
Overcast
45°F / 7°C 41°F / 5°C 87% 30.12 in
(1020 mb)
SE 4.6 mph
(SE 7 kph)
- 8SM
23:39
Overcast
45°F / 7°C 41°F / 5°C 87% 30.12 in
(1020 mb)
SE 6.9 mph
(SE 11 kph)
- 9SM
23:21
Overcast
45°F / 7°C 41°F / 5°C 87% 30.12 in
(1020 mb)
SE 4.6 mph
(SE 7 kph)
- 10SM
23:18
Overcast
Unknown Precip
45°F / 7°C 41°F / 5°C 87% 30.12 in
(1020 mb)
SE 4.6 mph
(SE 7 kph)
- 9SM
22:58
Overcast
Light Rain
45°F / 7°C 41°F / 5°C 87% 30.12 in
(1020 mb)
SE 6.9 mph
(SE 11 kph)
0.00 in
(0.00 mm)
10SM
22:52
Overcast
Light Rain
45°F / 7°C 41°F / 5°C 87% 30.12 in
(1020 mb)
SE 6.9 mph
(SE 11 kph)
- 10SM
22:42
Overcast
45°F / 7°C 41°F / 5°C 87% 30.12 in
(1020 mb)
ESE 4.6 mph
(ESE 7 kph)
- 10SM
22:32
Overcast
Unknown Precip
45°F / 7°C 41°F / 5°C 87% 30.15 in
(1021 mb)
SE 2.3 mph
(SE 4 kph)
- 10SM
22:13
Overcast
45°F / 7°C 41°F / 5°C 87% 30.15 in
(1021 mb)
SSE 2.3 mph
(SSE 4 kph)
- 10SM
21:58
Overcast
45°F / 7°C 41°F / 5°C 87% 30.15 in
(1021 mb)
S 2.3 mph
(S 4 kph)
- 10SM
20:58
Overcast
45°F / 7°C 37°F / 3°C 76% 30.15 in
(1021 mb)
SSE 6.9 mph
(SSE 11 kph)
- 10SM
19:58
Overcast
45°F / 7°C 39°F / 4°C 81% 30.18 in
(1022 mb)
SE 5.8 mph
(SE 9 kph)
- 10SM
18:58
Overcast
45°F / 7°C 34°F / 1°C 66% 30.18 in
(1022 mb)
E 5.8 mph
(E 9 kph)
- 10SM
17:58
Overcast
46°F / 8°C 37°F / 3°C 71% 30.18 in
(1022 mb)
SE 6.9 mph
(SE 11 kph)
0.00 in
(0.00 mm)
10SM
17:52
Overcast
46°F / 8°C 37°F / 3°C 71% 30.18 in
(1022 mb)
SE 6.9 mph
(SE 11 kph)
- 10SM
17:44
Overcast
Unknown Precip
46°F / 8°C 37°F / 3°C 71% 30.18 in
(1022 mb)
ESE 6.9 mph
(ESE 11 kph)
- 10SM
17:18
Overcast
45°F / 7°C 39°F / 4°C 81% 30.21 in
(1023 mb)
ESE 6.9 mph
(ESE 11 kph)
- 10SM
16:58
Mostly Cloudy
Drizzle
46°F / 8°C 39°F / 4°C 76% 30.21 in
(1023 mb)
SE 6.9 mph
(SE 11 kph)
0.00 in
(0.00 mm)
10SM
15:58
Mostly Cloudy
Light Rain
46°F / 8°C 39°F / 4°C 76% 30.21 in
(1023 mb)
SE 5.8 mph
(SE 9 kph)
0.01 in
(0.25 mm)
10SM
14:58
Overcast
Light Rain
46°F / 8°C 41°F / 5°C 82% 30.21 in
(1023 mb)
SE 10.4 mph
(SE 17 kph)
0.01 in
(0.25 mm)
10SM
13:58
Overcast
Light Rain
48°F / 9°C 39°F / 4°C 71% 30.24 in
(1024 mb)
SE 6.9 mph
(SE 11 kph)
0.02 in
(0.51 mm)
10SM
12:58
Mostly Cloudy
Light Rain
52°F / 11°C 36°F / 2°C 54% 30.21 in
(1023 mb)
SSE 8.1 mph
(SSE 13 kph)
0.00 in
(0.00 mm)
10SM
12:20
Partly Cloudy
Light Rain
54°F / 12°C 32°F / 0°C 44% 30.21 in
(1023 mb)
SSE 8.1 mph
(SSE 13 kph)
- 10SM
12:03
Mostly Cloudy
52°F / 11°C 34°F / 1°C 50% 30.21 in
(1023 mb)
SE 8.1 mph
(SE 13 kph)
- 10SM
11:58
Mostly Cloudy
Drizzle
52°F / 11°C 36°F / 2°C 54% 30.21 in
(1023 mb)
SE 9.2 mph
(SE 15 kph)
0.00 in
(0.00 mm)
10SM
11:19
Mostly Cloudy
Drizzle
54°F / 12°C 30°F / -1°C 41% 30.24 in
(1024 mb)
SSE 9.2 mph
(SSE 15 kph)
- 10SM
10:58
Mostly Cloudy
55°F / 13°C 27°F / -3°C 33% 30.21 in
(1023 mb)
S 8.1 mph
(S 13 kph)
- 10SM
09:58
Mostly Cloudy
54°F / 12°C 32°F / 0°C 44% 30.21 in
(1023 mb)
SE 9.2 mph
(SE 15 kph)
- 10SM
08:58
Partly Cloudy
52°F / 11°C 32°F / 0°C 47% 30.21 in
(1023 mb)
S 3.5 mph
(S 6 kph)
- 10SM
07:58
Partly Cloudy
50°F / 10°C 32°F / 0°C 50% 30.24 in
(1024 mb)
S 5.8 mph
(S 9 kph)
- 10SM
06:58
Overcast
48°F / 9°C 34°F / 1°C 58% 30.21 in
(1023 mb)
Calm - 10SM
05:58
Overcast
45°F / 7°C 34°F / 1°C 66% 30.21 in
(1023 mb)
Calm - 10SM
04:58
Partly Cloudy
43°F / 6°C 32°F / 0°C 66% 30.21 in
(1023 mb)
S 3.5 mph
(S 6 kph)
- 10SM
03:58
Partly Cloudy
43°F / 6°C 32°F / 0°C 66% 30.21 in
(1023 mb)
S 3.5 mph
(S 6 kph)
- 10SM
02:58
Clear
43°F / 6°C 32°F / 0°C 66% 30.21 in
(1023 mb)
S 4.6 mph
(S 7 kph)
- 10SM
01:58
Partly Cloudy
45°F / 7°C 32°F / 0°C 61% 30.21 in
(1023 mb)
SSE 4.6 mph
(SSE 7 kph)
- 10SM
00:58
Partly Cloudy
45°F / 7°C 32°F / 0°C 61% 30.21 in
(1023 mb)
S 6.9 mph
(S 11 kph)
- 10SM
Time Weather Temperature Dewpoint Humidity Pressure Winds Precip Visibility


Weather for websites

WeatherForYou.com, LLC is not responsible for any damages or problems caused by this service. Current weather conditions are obtained from the closest station including government and personal stations which may have varying degrees of accuracy. Weather forecasts are derived from the NOAA NDFD. Like all things, this site belongs to Jesus Christ... He just trusts us to maintain it. If you have any questions or comments email webmaster@weatherforyou.com

Copyright © 2016, WeatherForYou.com LLC. All rights reserved.